Weather History for Camarillo, CA

Change the Weather History Date:

Saturday, March 9, 2013

  Actual Average Record
Temperature  
Mean Temperature 55 °F 56 °F  
Max Temperature 65 °F 65 °F 86 °F (2012)
Min Temperature 44 °F 46 °F 32 °F (1964)
Degree Days  
Heating Degree Days 10 10  
Month to date heating degree days 64 91  
Since 1 July heating degree days 1204 1427  
Cooling Degree Days 0 0  
Month to date cooling degree days 4 0  
Year to date cooling degree days 24 9  
Growing Degree Days 4 (Base 50)    
Moisture  
Dew Point 43 °F    
Average Humidity 63    
Maximum Humidity 83    
Minimum Humidity 42    
Precipitation  
Precipitation 0.00 in 0.12 in 0.69 in (1986)
Month to date precipitation 0.81 1.46  
Year to date precipitation 2.01 8.64  
Since 1 July precipitation 4.72 12.88  
Sea Level Pressure  
Sea Level Pressure 30.15 in    
Wind  
Wind Speed 6 mph (West)    
Max Wind Speed 20 mph    
Max Gust Speed 23 mph    
Visibility 10 miles    
Events      
T = Trace of Precipitation, MM = Missing Value Source: NWS Daily Summary

Daily Weather History Graph

Daily Weather History Graph

Search for Another Location

Airport:

Trip Planner

Search our weather history database for the weather conditions in past years. The results will help you decide how hot, cold, wet, or windy it might be!

Date:

Astronomy

Mar. 09, 2013 Rise Set
Actual Time 6:14 AM PST 5:59 PM PST
Civil Twilight 5:49 AM PST 6:24 PM PST
Nautical Twilight 5:20 AM PST 6:53 PM PST
Astronomical Twilight 4:51 AM PST 7:22 PM PST
Moon 4:37 AM PST (3/9) 4:10 PM PST (3/9)
Length of Visible Light 12h 35m
Length of Day
11h 45m
Waning Crescent, 5% of the Moon is Illuminated
Mar 9
Waning Crescent
Mar 11
New
Mar 19
First Quarter
Mar 27
Full
Apr 2
Last Quarter

Hourly Weather History & Observations

Time (PST) Temp. Windchill Dew Point Humidity Pressure Visibility Wind Dir Wind Speed Gust Speed Precip Events Conditions
12:55 AM 51.1 °F - 42.1 °F 71% 30.07 in 10.0 mi West 5.8 mph - N/A   Clear
1:55 AM 51.1 °F - 41.0 °F 68% 30.07 in 10.0 mi West 12.7 mph 18.4 mph N/A   Clear
2:55 AM 50.0 °F - 41.0 °F 71% 30.08 in 10.0 mi WSW 3.5 mph - N/A   Clear
3:55 AM 50.0 °F - 39.9 °F 68% 30.08 in 10.0 mi West 15.0 mph - N/A   Clear
4:55 AM 46.0 °F 43.9 °F 39.9 °F 79% 30.09 in 10.0 mi NNE 4.6 mph - N/A   Clear
5:55 AM 45.0 °F - 39.9 °F 82% 30.11 in 10.0 mi Calm Calm - N/A   Clear
6:55 AM 45.0 °F - 39.9 °F 82% 30.14 in 10.0 mi Calm Calm - N/A   Clear
7:55 AM 52.0 °F - 42.1 °F 69% 30.16 in 10.0 mi ENE 4.6 mph - N/A   Clear
8:55 AM 54.0 °F - 42.1 °F 64% 30.16 in 10.0 mi Calm Calm - N/A   Clear
9:55 AM 57.9 °F - 43.0 °F 58% 30.16 in 10.0 mi West 6.9 mph - N/A   Clear
10:55 AM 61.0 °F - 37.9 °F 42% 30.17 in 10.0 mi West 11.5 mph - N/A   Clear
11:55 AM 61.0 °F - 39.9 °F 46% 30.17 in 10.0 mi West 11.5 mph 17.3 mph N/A   Clear
12:55 PM 63.0 °F - 42.1 °F 46% 30.16 in 10.0 mi West 15.0 mph 20.7 mph N/A   Clear
1:55 PM 64.9 °F - 41.0 °F 42% 30.14 in 10.0 mi West 16.1 mph - N/A   Clear
2:55 PM 64.9 °F - 45.0 °F 48% 30.14 in 10.0 mi West 10.4 mph - N/A   Clear
3:55 PM 63.0 °F - 45.0 °F 52% 30.13 in 10.0 mi West 10.4 mph - N/A   Clear
4:55 PM 61.0 °F - 46.9 °F 60% 30.14 in 10.0 mi WSW 8.1 mph - N/A   Clear
5:55 PM 60.1 °F - 46.9 °F 62% 30.15 in 10.0 mi Calm Calm - N/A   Clear
6:55 PM 57.0 °F - 48.0 °F 72% 30.18 in 10.0 mi ESE 5.8 mph - N/A   Clear
7:55 PM 55.0 °F - 46.9 °F 74% 30.19 in 10.0 mi Calm Calm - N/A   Clear
8:55 PM 55.0 °F - 46.0 °F 72% 30.20 in 10.0 mi NE 4.6 mph - N/A   Clear
9:55 PM 52.0 °F - 45.0 °F 77% 30.22 in 10.0 mi Calm Calm - N/A   Clear
10:55 PM 52.0 °F - 42.1 °F 69% 30.23 in 10.0 mi East 4.6 mph - N/A   Clear
11:55 PM 48.9 °F - 39.9 °F 71% 30.24 in 10.0 mi Calm Calm - N/A   Clear